Regional Weather Roundup
Issued by NWS Sioux Falls, SD

Home | Current Version | Previous Version | Graphics & Text | Print | Product List | Glossary Off
Versions: 1 2 3 4 5 6 7 8 9 10 11 12 13 14 15 16 17 18 19 20 21 22 23 24 25 26 27 28 29 30 31 32 33 34 35 36 37 38 39 40 41 42 43 44 45 46 47 48 49 50

000
ASUS43 KFSD 311002
RWRFSD

WEATHER ROUNDUP FOR SE SOUTH DAKOTA/SW MINNESOTA/NW IOWA
NATIONAL WEATHER SERVICE SIOUX FALLS SD
400 AM CST SAT JAN 31 2015

NOTE: "FAIR" INDICATES FEW OR NO CLOUDS BELOW 12,000 FEET WITH NO
SIGNIFICANT WEATHER AND OR OBSTRUCTIONS TO VISIBILITY.


SDZ038>040-050-052>070-311100-
SOUTHEAST SOUTH DAKOTA

CITY           SKY/WX    TMP DP  RH WIND       PRES   REMARKS
CHAMBERLAIN    NOT AVBL
HURON          PTCLDY    25  23  92 N10       30.14R WCI  15
MADISON        FAIR      25  25 100 NE6       30.09S WCI  18
MITCHELL       PTCLDY    25  23  92 NW8       30.11S WCI  16
SIOUX FALLS    PTCLDY    22  19  89 CALM      30.09F
WINNER         FAIR      28  22  78 CALM      30.08F
YANKTON        MOCLDY    36  27  69 SW7       30.10F
$$

MNZ071-072-080-081-089-090-097-098-311100-
SOUTHWEST MINNESOTA

CITY           SKY/WX    TMP DP  RH WIND       PRES   REMARKS
FAIRMONT       PTCLDY    25  19  80 SW5       30.11S WCI  19
JACKSON        PTCLDY    27  23  86 W6        30.12R WCI  20
LUVERNE        PTCLDY    27  23  86 NE3       30.11S FOG
MARSHALL       FAIR      25  19  80 N14       30.16R WCI  13
MONTEVIDEO     CLEAR     23  23 100 N14       30.16S WCI  11
PIPESTONE      PTCLDY    25  23  93 NE6       30.10S WCI  18
REDWOOD FALLS  CLEAR     27  24  89 NW8       30.13R WCI  19
TRACY          CLEAR     28  26  92 NW10      30.14R WCI  19
WINDOM         PTCLDY    23  21  93 CALM      30.12R
WORTHINGTON    PTCLDY    25  19  80 W7        30.11S WCI  17
$$

IAZ001>003-012>014-020>022-031-032-NEZ013-014-SDZ071-311100-
NORTHWEST IOWA

CITY           SKY/WX    TMP DP  RH WIND       PRES   REMARKS
ESTHERVILLE    PTCLDY    28  24  85 W8        30.11S WCI  20
SIOUX CITY     MOCLDY    28  25  88 E7        30.13F WCI  21
SPENCER        PTCLDY    27  23  85 SW3       30.12F
$$

ABBREVIATIONS USED IN REMARKS
   TC - TEMPERATURE IN CELSIUS
  WCI - WIND CHILL INDEX
   HX - HEAT INDEX
  VSB - VISIBILITY




USA.gov is the U.S. government's official web portal to all federal, state and local government web resources and services.